Regional Weather Roundup
Issued by NWS

Home | Current Version | Previous Version | Text Only | Print | Product List | Glossary On
Versions: 1 2 3 4 5 6 7 8 9 10 11 12 13 14 15 16 17 18 19 20 21 22 23 24 25 26 27 28 29 30 31 32 33 34 35 36 37 38 39 40 41 42 43 44 45 46 47 48 49 50
000
ASUS43 KLSX 251507
RWRMO

WEATHER SUMMARY FOR MISSOURI
NATIONAL WEATHER SERVICE SPRINGFIELD MO
1000 AM CDT THU MAY 25 2017

NOTE: "FAIR" INDICATES FEW OR NO CLOUDS BELOW 12,000 FEET WITH NO
       SIGNIFICANT WEATHER AND/OR OBSTRUCTIONS TO VISIBILITY.
       CURRENT SKY AND/OR WEATHER CONDITIONS ARE NOT AVAILABLE FOR
       CHILLICOTHE AND FARMINGTON.

MOZ001>031-035>038-043-044-053-054-251600-
...NORTHERN AND WESTERN MISSOURI...

CITY           SKY/WX    TMP DP  RH WIND       PRES   REMARKS
KANSAS CTY INT MOSUNNY   65  52  62 S12       29.72R
KANSAS C DTWN  SUNNY     67  51  56 S9        29.72S
LEE`S SUMMIT   SUNNY     65  51  60 S10       29.73S
ST JOSEPH      SUNNY     66  52  60 S12       29.71S
CHILLICOTHE      N/A     63  53  70 S5        29.74R
KIRKSVILLE     SUNNY     63  51  65 VRB3      29.73F

$$
MOZ066>068-077>081-088>096-101>105-251600-
...SOUTHWEST MISSOURI...

CITY           SKY/WX    TMP DP  RH WIND       PRES   REMARKS
SPRINGFIELD    SUNNY     63  52  67 S8        29.78S
JOPLIN         SUNNY     68  52  56 S12       29.77R
BRANSON        MOSUNNY   64  50  59 S5        29.81R

$$
MOZ032>034-039>042-045>050-055>058-069>072-251600-
...CENTRAL MISSOURI...

CITY           SKY/WX    TMP DP  RH WIND       PRES   REMARKS
COLUMBIA       SUNNY     63  51  65 NW5       29.75R
JEFFERSON CITY SUNNY     65  51  60 CALM      29.75S
ROLLA          SUNNY     61  52  72 W7        29.75S
SEDALIA        MOSUNNY   66  57  72 SW8       29.76R
WHITEMAN AFB   MOSUNNY   64  56  76 SW12      29.74S
WARRENSBURG    SUNNY     63  52  67 S9        29.74S
OSAGE BEACH    SUNNY     62  52  69 SW5       29.77

$$
MOZ051-052-059>065-251600-
...EAST CENTRAL MISSOURI...

CITY           SKY/WX    TMP DP  RH WIND       PRES   REMARKS
ST LOUIS INTL  MOSUNNY   67  53  61 NW9G20    29.73R
SPIRIT OF STL  MOSUNNY   66  54  65 NW13      29.72S
ST CHARLES     SUNNY     65  53  65 NW13      29.71S

$$
MOZ072>076-082>087-097>100-106>115-251600-
...SOUTH CENTRAL AND SOUTHEAST MISSOURI...

CITY           SKY/WX    TMP DP  RH WIND       PRES   REMARKS
CAPE GIRARDEAU MOSUNNY   66  52  60 W7G18     29.74R
FARMINGTON     MOSUNNY   63  52  67 NW12      29.75S
POPLAR BLUFF   SUNNY     66  53  63 W8        29.77R
WEST PLAINS    SUNNY     62  51  67 SW7       29.80S

$$



USA.gov is the U.S. government's official web portal to all federal, state and local government web resources and services.